Flag for Austria Weather past 2 weeks in Mattersburg, Burgenland, Austria

Now
78 °F

Warm.


Feels Like: 80 °F
Forecast: 62 / 81 °F
Wind: 2 mph from North

Location: Eisenstadt

Current Time: Jul 7, 2015 at 10:41:04 PM

Latest Report: Jul 7, 2015 at 10:00 PM


Visibility: N/A

Pressure: 29.79 "Hg

Humidity: 66%

Dew point: 66 °F

Location of MattersburgLocation

Historic Weather in Mattersburg — Graph

°F

Mattersburg temperature yesterday

Maximum temperature yesterday: 93 °F (at 1:00 PM)
Minimum temperature yesterday: 67 °F (at 5:00 AM)
Average temperature yesterday: 81 °F

Past Weeks' High & Low Weather Summary

 TemperatureHumidityPressure
High98 °F (Jul 7, 3:00 PM)95% (Jun 23, 5:00 AM)30.29 "Hg (Jun 23, 5:00 AM)
Low53 °F (Jun 25, 5:00 AM)22% (Jul 5, 6:00 PM)29.77 "Hg (Jun 23, 4:00 AM)
Average71 °F58%30.09 "Hg
* Reported Jun 22 10:00 PM — Jul 7 9:00 PM, Mattersburg, Weather by CustomWeather, © 2015

Note: Actual official high and low records may vary slightly from our data, if they occured in-between our weather recording intervals... More about our weather records

Advertising

Mattersburg weather history for previous 24 hours

 ConditionsComfort  
Time TempWeatherWind HumidityBarometerVisibility
9:00 PM
Tue, Jul 7
80 °FWarm.1 mph65%29.78 "HgN/A
8:00 PM83 °FWarm.2 mph59%29.79 "HgN/A
7:00 PM86 °FPartly sunny.3 mph50%29.81 "Hg12 mi
6:00 PM86 °FWarm.3 mph56%29.83 "HgN/A
5:00 PM88 °FPartly sunny.1 mph53%29.83 "Hg12 mi
4:00 PM93 °FHot.5 mph40%29.83 "HgN/A
3:00 PM98 °FExtremely hot.5 mph33%29.85 "HgN/A
2:00 PM94 °FSunny.5 mph38%29.88 "Hg11 mi
1:00 PM92 °FHot.3 mph42%29.91 "HgN/A
12:00 PM88 °FHot.3 mph48%29.94 "HgN/A
11:00 AM86 °FSunny.3 mph51%29.96 "Hg7 mi
10:00 AM84 °FWarm.2 mph51%29.98 "HgN/A
9:00 AM82 °FWarm.1 mph55%29.99 "HgN/A
8:00 AM80 °FSunny.1 mph61%30.01 "Hg6 mi
7:00 AM76 °FPassing clouds.2 mph67%30.01 "Hg6 mi
6:00 AM72 °FPassing clouds.2 mph74%30.01 "Hg7 mi
5:00 AM74 °FMild.1 mph68%30.02 "HgN/A
4:00 AM75 °FMild.1 mph68%30.02 "HgN/A
3:00 AM75 °FMild.2 mph64%30.02 "HgN/A
2:00 AM77 °FClear.1 mph58%30.02 "Hg12 mi
1:00 AM78 °FWarm.3 mph53%30.02 "HgN/A
12:00 AM76 °FMild.3 mph59%30.02 "HgN/A
10:00 PM
Mon, Jul 6
80 °FWarm.6 mph51%30.01 "HgN/A
Weather by CustomWeather, © 2015

See weather overviewHow to use our weather pages